Japanese version Home page |
Updated on December 5, 2004 |
|
Orbital ElementsT 2004 Oct. 7.897 TT MPC q 0.11283 (2000.0) P Q Peri. 5.354 -0.992905 +0.112547 Node 182.464 -0.110999 -0.761595 e 1.0 Incl. 63.174 +0.042638 +0.638206 >From 59 observations 2004 Sept. 9-27.
|
Finding Charts
|
Magnitudes Graphm1 = 10.5 + 5 log d + 13.2 log r [ ,-21] ( - 2004 Sept.16) m1 = 9.5 + 5 log d + 5 log r [-21, 0] (2004 Sept.16 - 2004 Oct. 7) m1 = 20.2 + 5 log d + 13.5 log r [ 0, ] (2004 Oct. 7 - ) * Gray curve is: m1 = 14.3 + 5 log d + 10.0 log r
|
The orbital elements are published on M.P.E.C. 2004-T08.
|